Location: Chateh
(58.6667°N, 118.6000°W)
Time: 10:31:21
(UTC+00:00)

O/OREOS (USA 219) - Pass Details

Date: 14 December 2023
Orbit: 621 x 646 km, 72.0° (Epoch: 22 May)

Event Time Altitude Azimuth Distance (km) Brightness Sun altitude
Exits shadow 11:19:45 12° 47° (NE) 1,914 ? -38.8°
Drops below altitude 10° 11:20:12 10° 52° (NE) 2,016 ? -38.7°
Sets 11:23:15 0° 73° (ENE) 2,927 ? -38.3°
